Home   Weather   Manali   Past weeks
Flag for India

Past Weather in Manali, Himachal Pradesh, India — Yesterday and Last 2 Weeks

Now
81 °F

Scattered clouds.


Feels Like: 81 °F
Forecast: 54 / 33 °F
Wind: 9 mph from West

Location: Amritsar Airport

Current Time: Apr 3, 2020 at 5:26:55 pm

Latest Report: Apr 3, 2020 at 4:30 pm


Visibility: 4 mi

Pressure: 29.89 "Hg (24.09 "Hg at 1894m altitude)

Humidity: 51%

Dew Point: 61 °F

Location of ManaliLocation

Past Weather in Manali — Graph

°F

Manali Temperature Yesterday

Maximum temperature yesterday: 81 °F (at 1:30 pm)
Minimum temperature yesterday: 57 °F (at 6:30 am)
Average temperature yesterday: 70 °F

High & Low Weather Summary for the Past Weeks

 TemperatureHumidityPressure
High82 °F (Mar 23, 3:00 pm)100% (Mar 22, 7:00 am)30.09 "Hg (Mar 22, 7:00 am)
Low52 °F (Apr 3, 7:00 am)42% (Mar 23, 3:00 pm)29.83 "Hg (Mar 19, 3:30 pm)
Average68 °F74%29.92 "Hg
* Reported Mar 19 2:30 pm — Apr 3 2:30 pm, Manali. Weather by CustomWeather, © 2020

Note: Actual official high and low records may vary slightly from our data, if they occured in-between our weather recording intervals... More about our weather records

Manali Weather History for the Previous 24 Hours

Scroll right to see more
 ConditionsComfort  
Time TempWeatherWind HumidityBarometerVisibility
2:30 pm
Fri, Apr 3
81 °FScattered clouds.7 mph51%29.92 "Hg4 mi
2:00 pm81 °FScattered clouds.7 mph54%29.92 "Hg4 mi
1:00 pm79 °FScattered clouds.7 mph61%29.95 "Hg3 mi
12:30 pm77 °FScattered clouds.7 mph61%29.95 "Hg3 mi
12:00 pm77 °FHaze.3 mph61%29.98 "Hg3 mi
11:30 am77 °FHaze.2 mph61%29.98 "Hg3 mi
11:00 am75 °FHaze.2 mph61%29.98 "Hg2 mi
10:30 am73 °FHaze.2 mph65%29.98 "Hg2 mi
10:00 am72 °FHaze.2 mph69%29.95 "Hg2 mi
9:30 am70 °FHaze.2 mph69%29.95 "Hg2 mi
9:00 am68 °FHaze.3 mph73%29.95 "Hg2 mi
8:30 am64 °FFog.5 mph78%29.95 "Hg2 mi
8:00 am61 °FFog.2 mph83%29.95 "Hg2 mi
7:30 am55 °FFog.2 mph88%29.95 "Hg2 mi
7:00 am52 °FFog.2 mph94%29.92 "Hg2 mi
6:30 am54 °FFog.No wind94%29.92 "Hg2 mi
5:30 am55 °FFog.No wind88%29.92 "Hg2 mi
5:00 am54 °FFog.No wind94%29.92 "Hg2 mi
4:00 am55 °FFog.No wind88%29.92 "Hg2 mi
3:30 am57 °FFog.No wind88%29.92 "Hg2 mi
3:00 am57 °FFog.No wind82%29.92 "Hg2 mi
2:30 am55 °FFog.2 mph88%29.95 "Hg2 mi
2:00 am59 °FFog.No wind88%29.95 "Hg2 mi
1:00 am61 °FFog.No wind83%29.95 "Hg2 mi
12:30 am61 °FFog.No wind83%29.95 "Hg2 mi
12:00 am61 °FFog.2 mph83%29.95 "Hg2 mi
11:30 pm
Thu, Apr 2
61 °FFog.2 mph83%29.95 "Hg2 mi
11:00 pm61 °FFog.No wind88%29.95 "Hg2 mi
10:30 pm63 °FFog.2 mph88%29.95 "Hg2 mi
10:00 pm70 °FFog.2 mph73%29.95 "Hg2 mi
9:00 pm66 °FHaze.2 mph83%29.95 "Hg2 mi
8:30 pm70 °FHaze.2 mph73%29.95 "Hg2 mi
8:00 pm72 °FHaze.No wind69%29.92 "Hg2 mi
7:30 pm72 °FPassing clouds.No wind69%29.92 "Hg4 mi
7:00 pm72 °FPassing clouds.2 mph65%29.92 "Hg4 mi
6:30 pm75 °FPassing clouds.7 mph61%29.89 "Hg4 mi
6:00 pm77 °FPassing clouds.7 mph61%29.89 "Hg4 mi
5:30 pm79 °FPassing clouds.8 mph54%29.89 "Hg4 mi
5:00 pm79 °FPassing clouds.9 mph54%29.89 "Hg4 mi
Weather by CustomWeather, © 2020

See weather overview

Advertising